Change the Weather History Date:

Wednesday, February 20, 2013

  Actual Average Record
Temperature  
Mean Temperature 24 °F -  
Max Temperature 26 °F 30 °F 46 °F (1977)
Min Temperature 21 °F 20 °F -6 °F (1965)
Degree Days  
Heating Degree Days 42    
Moisture  
Dew Point 18 °F    
Average Humidity 78    
Maximum Humidity 93    
Minimum Humidity 64    
Precipitation  
Precipitation 0.00 in - - ()
Sea Level Pressure  
Sea Level Pressure 29.13 in    
Wind  
Wind Speed 1 mph (North)    
Max Wind Speed 5 mph    
Max Gust Speed -    
Visibility 13 miles    
Events      
Averages and records for this station are not official NWS values.
T = Trace of Precipitation, MM = Missing Value Source: NWS Daily Summary

Daily Weather History Graph

Daily Weather History Graph

Search for Another Location

Airport or City:

Trip Planner

Search our weather history database for the weather conditions in past years. The results will help you decide how hot, cold, wet, or windy it might be!

Date:

Astronomy

Feb. 20, 2013 Rise Set
Actual Time 8:11 AM AKST 5:47 PM AKST
Civil Twilight 7:26 AM AKST 6:31 PM AKST
Nautical Twilight 6:36 AM AKST 7:21 PM AKST
Astronomical Twilight 5:46 AM AKST 8:12 PM AKST
Moon 12:21 PM AKST (2/20) 5:35 AM AKST (2/20)
Length of Visible Light 11h 05m
Length of Day
9h 35m
Waxing Gibbous, 77% of the Moon is Illuminated
Feb 20
Waxing Gibbous
Feb 25
Full
Mar 4
Last Quarter
Mar 11
New
Mar 19
First Quarter

Hourly Weather History & Observations

Time (AKST) Temp. Windchill Dew Point Humidity Pressure Visibility Wind Dir Wind Speed Gust Speed Precip Events Conditions
5:36 AM 21.2 °F - 19.4 °F 93% 29.18 in 10.0 mi Calm Calm - N/A   Overcast
5:47 AM 21.2 °F - 17.6 °F 86% 29.17 in 10.0 mi Calm Calm - N/A   Overcast
6:47 AM 21.2 °F - 15.8 °F 80% 29.15 in 10.0 mi Calm Calm - N/A   Overcast
7:16 AM 21.2 °F - 19.4 °F 93% 29.15 in 10.0 mi Calm Calm - N/A   Overcast
7:47 AM 21.2 °F - 19.4 °F 93% 29.13 in 12.0 mi Calm Calm - N/A   Overcast
8:47 AM 21.2 °F - 19.4 °F 93% 29.12 in 15.0 mi Calm Calm - N/A   Overcast
8:56 AM 21.2 °F 16.4 °F 17.6 °F 86% 29.12 in 10.0 mi North 3.5 mph - N/A   Overcast
9:47 AM 21.2 °F - 17.6 °F 86% 29.11 in 15.0 mi Calm Calm - N/A   Overcast
10:36 AM 23.0 °F - 19.4 °F 86% 29.11 in 10.0 mi Calm Calm - N/A   Overcast
10:47 AM 23.0 °F - 19.4 °F 86% 29.11 in 15.0 mi Calm Calm - N/A   Overcast
11:47 AM 24.8 °F - 17.6 °F 74% 29.12 in 20.0 mi Calm Calm - N/A   Mostly Cloudy
12:47 PM 26.6 °F - 17.6 °F 69% 29.11 in 20.0 mi Calm Calm - N/A   Mostly Cloudy
12:56 PM 26.6 °F 21.2 °F 17.6 °F 69% 29.12 in 10.0 mi South 4.6 mph - N/A   Mostly Cloudy
1:47 PM 26.6 °F - 19.4 °F 74% 29.12 in 20.0 mi Calm Calm - N/A   Mostly Cloudy
2:47 PM 26.6 °F - 17.6 °F 69% 29.11 in 20.0 mi Calm Calm - N/A   Mostly Cloudy
3:16 PM 26.6 °F 22.6 °F 15.8 °F 64% 29.11 in 10.0 mi SSE 3.5 mph - N/A   Mostly Cloudy
3:36 PM 26.6 °F - 17.6 °F 69% 29.12 in 10.0 mi Calm Calm - N/A   Mostly Cloudy
3:47 PM 24.8 °F - 15.8 °F 69% 29.11 in 20.0 mi Calm Calm - N/A   Mostly Cloudy
3:56 PM 24.8 °F 19.1 °F 15.8 °F 69% 29.12 in 10.0 mi SSE 4.6 mph - N/A   Mostly Cloudy
4:16 PM 24.8 °F - 15.8 °F 69% 29.12 in 10.0 mi Calm Calm - N/A   Mostly Cloudy
4:36 PM 24.8 °F 20.5 °F 15.8 °F 69% 29.12 in 10.0 mi West 3.5 mph - N/A   Mostly Cloudy
4:47 PM 24.8 °F - 15.8 °F 69% 29.12 in 20.0 mi Calm Calm - N/A   Overcast
5:47 PM 24.8 °F - 17.6 °F 74% 29.14 in 15.0 mi Calm Calm - N/A   Overcast
6:47 PM 24.8 °F - 19.4 °F 80% 29.15 in 10.0 mi Calm Calm - N/A   Mostly Cloudy
7:47 PM 24.8 °F - 17.6 °F 74% 29.17 in 10.0 mi Calm Calm - N/A   Mostly Cloudy
8:47 PM 23.0 °F - 17.6 °F 80% 29.18 in 10.0 mi Calm Calm - N/A   Mostly Cloudy
9:47 PM 23.0 °F - 19.4 °F 86% 29.19 in 10.0 mi Calm Calm - N/A   Mostly Cloudy